Wind_Speed
10 12 12 11 13 17 19 18 19 18 20 24 26 31 25 28 31 30 29 29 28 27 31 31 29 29 28 28 27 27 25 24 24 24 23 24 25 25 26 26 27 27 27 27
9 10 12 13 14 15 17 20 23 23 20 23 27 34 30 30 32 31 29 30 30 30 32 30 31 32 30 30 30 29 27 26 25 23 23 24 25 26 26 27 28 29 29 28
8 7 6 9 12 14 17 20 23 24 27 28 32 38 31 24 25 28 31 33 35 35 36 35 35 35 35 32 31 30 28 27 24 22 22 24 26 26 27 28 29 29 29 29
7 9 11 10 11 12 17 16 18 20 18 9 18 11 31 32 31 31 31 31 30 31 39 40 41 40 37 34 33 31 29 26 23 22 23 25 26 26 28 29 29 28 29 29
6 8 9 12 13 13 14 18 19 21 22 22 26 16 12 27 34 24 25 27 29 31 37 40 42 40 38 36 34 31 29 26 23 22 23 25 25 25 26 28 29 29 29 29
10 12 13 11 14 14 16 18 21 21 17 5 10 11 5 16 18 16 18 19 22 26 32 37 41 42 40 36 34 31 27 24 22 22 23 24 25 25 26 28 29 29 30 30
9 12 13 14 13 13 11 11 6 4 1 5 3 8 21 31 28 21 18 23 20 22 25 31 38 40 35 32 32 28 25 23 22 22 24 25 25 26 27 28 29 30 30 31
4 4 5 6 7 7 11 7 3 5 3 5 15 12 12 16 20 25 22 24 28 28 25 25 30 32 32 31 28 24 24 23 23 25 27 26 26 26 28 30 30 31 31 32
5 3 6 13 14 11 5 4 6 8 12 5 7 12 22 18 11 10 11 15 19 22 24 22 24 27 29 27 25 25 24 24 25 26 30 30 30 31 33 34 35 34 34 34
5 7 9 11 12 13 14 10 5 4 4 6 8 15 16 7 7 13 20 25 23 22 20 16 17 20 24 25 25 23 28 28 28 31 33 34 35 35 36 36 36 36 36 36
12 8 8 12 11 15 15 14 10 7 7 4 3 11 10 18 19 26 23 16 12 12 11 9 10 15 20 22 25 28 28 31 35 36 37 37 39 40 38 37 37 37 38 37
13 11 11 15 18 18 20 19 17 9 6 11 8 32 32 27 24 22 22 25 24 21 18 14 16 19 23 26 26 29 34 38 41 40 38 39 41 42 40 39 39 39 39 39
10 7 10 8 9 10 15 16 14 18 27 28 13 23 32 19 31 31 25 27 27 21 16 16 21 24 29 36 41 41 42 43 43 41 40 42 44 44 42 41 41 41 41 42
20 21 25 24 30 32 31 27 22 19 18 33 42 53 54 47 46 48 39 33 32 32 38 44 44 47 47 48 40 40 43 45 45 45 45 45 47 46 45 44 43 44 44 44
21 28 32 35 34 36 41 40 38 40 48 33 57 44 52 50 49 49 45 42 42 43 44 45 48 49 45 35 38 40 42 46 46 47 47 49 50 49 49 48 47 46 47 48
23 27 31 41 35 33 41 36 36 40 44 48 46 50 41 40 38 34 35 38 40 38 39 33 30 30 29 31 33 35 37 41 44 47 49 48 49 50 51 50 49 48 49 50
28 28 24 22 25 29 32 26 17 21 24 27 33 36 36 37 36 35 34 32 30 32 33 32 31 29 27 26 25 27 31 35 39 42 46 48 49 50 51 51 50 51 52 53
31 24 19 20 27 5 15 15 28 35 35 30 31 33 33 35 35 33 30 29 29 28 26 23 20 20 23 27 31 33 36 38 40 42 43 45 45 46 47 49 50 52 54 56
24 24 15 8 12 35 35 21 20 25 33 30 33 28 25 27 29 28 27 27 26 23 21 21 24 28 33 35 36 37 38 39 40 40 41 42 43 44 46 48 51 53 55 56
16 22 26 14 8 8 27 32 35 29 36 15 10 18 24 30 32 31 29 26 23 24 28 31 35 38 40 41 40 39 39 39 40 41 42 43 44 45 46 47 49 51 53 55
16 20 32 33 18 24 23 22 25 13 23 19 32 36 32 32 31 31 30 30 30 32 36 39 42 45 43 42 41 40 41 42 42 42 42 42 44 45 46 48 49 50 52 54
21 14 16 19 14 18 27 25 24 32 37 39 42 40 37 37 33 32 34 37 39 41 45 46 42 42 42 42 41 40 40 41 41 41 41 42 44 45 47 49 50 52 53 55
27 30 24 22 27 33 40 44 46 46 45 44 43 40 39 38 37 38 39 41 42 41 40 41 40 39 38 38 38 37 38 38 38 39 42 45 47 49 49 50 50 51 51 52
34 28 34 38 45 40 40 41 43 45 45 46 44 43 41 39 39 39 39 40 41 40 39 38 36 34 34 35 35 37 38 41 42 44 44 45 45 44 44 44 45 46 47 48
44 42 44 48 47 45 44 42 40 40 41 43 43 40 38 37 38 40 39 38 38 36 33 33 32 31 32 34 37 40 42 42 41 40 39 38 38 39 40 41 42 43 43 46
49 47 44 46 44 42 43 43 42 43 42 41 41 40 40 39 38 37 35 33 32 32 31 30 31 34 36 37 37 39 39 37 35 33 34 35 36 37 39 41 41 38 41 42
Wind_Direction
257 256 264 264 257 260 268 275 280 286 287 285 283 283 282 276 271 268 268 269 269 268 262 258 254 252 251 250 248 248 251 255 260 266 272 278 282 284 286 288 289 289 290 290
260 269 265 268 274 276 276 277 281 292 290 288 287 286 285 278 278 275 271 267 265 261 262 260 256 253 251 249 247 247 249 253 260 268 276 280 283 286 289 291 292 291 291 292
257 265 276 278 282 286 286 285 288 289 293 291 294 292 293 287 283 282 274 270 264 261 257 254 252 251 250 248 245 245 247 252 260 268 274 279 283 287 290 290 291 295 300 302
268 268 269 279 282 287 290 288 292 295 300 293 302 286 287 294 290 285 282 276 271 266 260 256 253 251 248 245 244 243 246 251 256 263 271 277 282 287 292 296 298 299 300 302
273 286 290 289 292 291 286 292 294 293 290 289 284 269 294 300 300 301 286 279 271 268 262 256 253 251 249 246 243 243 245 250 256 265 274 279 283 288 291 292 294 297 300 303
275 279 285 283 287 287 290 297 300 290 281 270 258 238 291 314 314 300 296 290 277 267 261 255 249 247 246 244 242 241 244 248 257 270 279 283 285 287 289 291 293 297 300 302
304 292 286 287 292 296 296 303 309 331 334 242 294 266 281 293 288 296 300 292 283 290 287 264 249 248 248 246 239 238 244 252 266 280 286 285 285 287 288 289 291 293 295 297
296 303 325 310 303 292 299 283 264 259 259 283 294 253 289 297 301 296 291 282 282 283 280 275 259 245 240 236 232 241 251 263 274 285 289 289 289 289 288 287 286 286 287 290
302 270 296 293 296 299 303 263 276 276 288 307 262 273 291 290 299 294 299 298 291 282 277 270 259 244 238 234 234 244 261 271 281 287 294 294 292 293 293 287 284 283 284 286
289 291 278 290 297 295 273 274 270 244 312 298 284 291 285 280 306 304 310 297 287 283 277 269 256 239 232 231 243 263 274 272 281 288 288 290 291 292 287 283 281 281 281 282
306 278 275 287 286 289 277 263 249 245 240 215 302 279 286 298 302 303 302 298 298 280 267 257 249 236 236 248 271 273 278 281 283 285 288 288 290 291 291 285 282 280 279 279
290 282 277 289 287 274 269 267 256 224 227 232 265 271 287 281 289 295 305 292 278 274 268 251 237 244 249 261 273 279 284 284 279 278 281 285 287 288 289 285 280 278 278 278
285 273 303 288 268 279 269 272 260 258 259 259 247 270 281 272 288 291 295 292 282 260 253 273 282 278 276 279 285 282 277 274 274 273 278 281 285 284 284 285 280 278 277 278
281 273 272 264 280 286 281 277 271 257 249 261 253 276 290 282 282 286 285 278 272 273 281 290 290 287 286 286 279 270 271 270 271 272 274 282 283 281 281 284 282 279 278 277
275 277 281 282 284 285 285 279 276 265 270 250 287 272 294 288 287 286 284 282 280 281 281 279 278 278 275 267 272 272 271 270 270 273 279 282 282 281 281 280 280 279 278 277
274 274 286 287 291 287 283 280 278 275 274 266 280 287 293 293 291 286 283 281 283 287 289 291 288 286 282 276 272 269 269 271 274 276 279 280 280 279 278 278 278 278 277 277
274 273 281 288 292 294 291 301 281 280 280 285 276 297 290 293 291 291 290 288 285 287 286 284 283 277 271 269 269 269 270 272 274 277 277 277 277 277 278 278 279 278 277 276
265 265 268 278 297 287 289 295 297 295 291 290 289 292 291 289 291 292 290 289 287 283 278 275 266 270 278 280 282 283 283 281 279 277 276 277 278 279 279 280 279 278 277 276
261 252 245 248 257 282 294 299 287 289 295 299 297 294 297 298 297 298 293 287 283 276 264 264 273 282 288 290 289 287 284 283 282 280 280 281 281 281 280 279 278 278 279 279
238 236 231 225 244 245 294 297 298 300 299 304 297 307 307 302 296 292 286 279 271 269 270 278 289 294 294 293 291 289 287 285 284 283 284 284 283 282 282 281 281 280 280 281
242 238 227 235 243 270 278 283 290 278 303 299 300 305 303 302 290 288 283 276 273 279 280 289 294 292 289 288 289 289 288 288 288 288 289 289 288 287 287 286 285 285 285 285
270 259 235 227 228 266 286 278 279 294 296 299 300 300 300 299 287 280 281 282 283 285 288 291 290 289 289 289 290 290 290 290 291 292 292 291 290 290 290 289 289 289 288 288
261 262 265 252 270 277 287 289 291 292 294 296 295 293 293 291 286 284 285 286 288 287 287 288 288 289 290 290 290 290 290 290 292 292 292 291 290 291 291 291 291 290 291 291
282 277 268 281 283 282 284 286 287 288 288 292 291 292 291 288 286 288 289 290 289 289 289 289 290 291 291 292 294 294 294 294 294 294 293 293 293 293 292 293 293 293 294 295
282 285 285 284 284 287 286 288 288 287 289 291 291 290 289 288 289 290 291 290 290 290 290 291 292 292 292 293 294 294 294 295 296 295 294 294 294 294 294 295 296 296 297 298
286 289 286 285 289 289 289 288 287 288 288 289 289 289 290 291 291 292 292 291 291 292 292 293 294 295 295 296 297 295 295 297 298 298 299 299 299 299 299 299 298 297 298 299
Height
3115 3117 3117 3118 3118 3118 3118 3119 3117 3117 3116 3113 3111 3107 3111 3110 3107 3107 3109 3109 3109 3110 3110 3110 3111 3113 3114 3115 3116 3117 3117 3117 3117 3117 3117 3116 3116 3116 3116 3115 3114 3113 3112 3110
3116 3115 3115 3116 3116 3117 3116 3116 3115 3114 3112 3110 3106 3101 3103 3103 3101 3102 3103 3102 3102 3103 3102 3104 3105 3107 3108 3109 3111 3111 3112 3112 3111 3111 3111 3111 3111 3110 3109 3108 3107 3106 3104 3103
3112 3114 3113 3114 3115 3115 3115 3114 3113 3112 3109 3106 3101 3093 3093 3095 3095 3095 3095 3095 3095 3095 3094 3095 3097 3099 3100 3102 3103 3104 3105 3106 3106 3106 3107 3107 3106 3104 3103 3102 3101 3099 3097 3095
3111 3111 3111 3112 3112 3113 3112 3111 3109 3108 3107 3105 3103 3088 3089 3089 3089 3088 3088 3087 3088 3087 3087 3088 3088 3089 3093 3094 3096 3098 3099 3099 3100 3101 3101 3101 3099 3097 3096 3094 3093 3091 3090 3088
3111 3110 3110 3110 3110 3110 3110 3107 3105 3103 3101 3099 3098 3094 3078 3084 3079 3081 3079 3078 3079 3080 3080 3080 3082 3084 3085 3087 3089 3091 3092 3093 3094 3095 3095 3094 3092 3090 3089 3088 3087 3085 3084 3082
3108 3108 3108 3107 3106 3106 3106 3105 3102 3098 3097 3095 3089 3091 3076 3077 3076 3076 3074 3074 3072 3071 3071 3071 3073 3074 3076 3080 3083 3084 3086 3087 3088 3088 3088 3087 3085 3084 3083 3082 3080 3078 3077 3075
3107 3106 3105 3105 3105 3105 3105 3104 3102 3099 3097 3092 3088 3086 3075 3074 3071 3072 3071 3069 3069 3067 3065 3063 3062 3066 3072 3075 3076 3078 3080 3081 3081 3081 3081 3080 3079 3077 3076 3075 3073 3072 3071 3069
3104 3104 3105 3104 3104 3105 3103 3105 3105 3106 3100 3089 3086 3075 3067 3070 3069 3067 3066 3065 3063 3062 3061 3059 3059 3061 3064 3066 3070 3073 3074 3075 3075 3075 3075 3073 3072 3070 3069 3068 3067 3066 3064 3063
3104 3103 3103 3102 3102 3104 3103 3103 3104 3102 3095 3091 3076 3069 3068 3065 3063 3063 3062 3060 3059 3056 3055 3054 3054 3056 3059 3063 3066 3068 3069 3068 3068 3067 3066 3065 3064 3063 3063 3061 3060 3059 3057 3056
3103 3103 3101 3101 3101 3101 3101 3103 3102 3102 3102 3095 3073 3067 3063 3064 3064 3063 3061 3058 3054 3051 3050 3050 3051 3052 3055 3058 3061 3062 3062 3061 3060 3059 3058 3057 3056 3054 3053 3052 3051 3050 3049 3048
3100 3100 3099 3098 3097 3096 3095 3096 3098 3100 3098 3096 3088 3064 3062 3061 3060 3059 3057 3054 3052 3050 3049 3049 3050 3051 3053 3054 3055 3056 3055 3053 3051 3048 3047 3047 3046 3045 3043 3042 3041 3041 3040 3039
3098 3095 3093 3093 3092 3090 3090 3090 3092 3094 3090 3086 3083 3054 3059 3057 3056 3054 3053 3051 3049 3048 3047 3046 3047 3048 3049 3049 3048 3047 3046 3044 3041 3040 3038 3038 3037 3035 3034 3033 3032 3031 3029 3029
3095 3092 3091 3088 3087 3086 3083 3083 3085 3086 3084 3077 3081 3056 3053 3053 3051 3049 3048 3048 3046 3043 3042 3042 3043 3043 3043 3041 3039 3037 3035 3034 3031 3031 3030 3029 3028 3026 3024 3023 3022 3021 3020 3018
3090 3087 3087 3084 3082 3080 3076 3076 3079 3080 3075 3065 3054 3049 3042 3048 3047 3044 3042 3040 3039 3037 3036 3034 3034 3032 3031 3029 3027 3026 3024 3023 3021 3021 3021 3020 3017 3016 3015 3013 3011 3010 3009 3007
3087 3080 3078 3075 3073 3069 3062 3062 3065 3064 3056 3059 3035 3045 3034 3037 3035 3033 3030 3030 3028 3027 3026 3024 3023 3021 3019 3018 3016 3016 3015 3013 3012 3012 3011 3009 3006 3005 3004 3002 3000 2999 2997 2995
3079 3075 3070 3061 3064 3059 3046 3048 3048 3045 3042 3040 3036 3024 3033 3027 3023 3021 3020 3018 3016 3014 3013 3012 3010 3009 3008 3007 3007 3006 3006 3004 3003 3002 3000 2997 2995 2993 2992 2990 2988 2986 2984 2982
3073 3072 3070 3057 3055 3050 3039 3034 3034 3034 3032 3033 3027 3024 3021 3017 3016 3013 3011 3010 3008 3007 3006 3004 3003 3001 3000 2999 2998 2997 2996 2995 2993 2990 2988 2985 2983 2981 2978 2976 2975 2973 2971 2969
3063 3067 3069 3058 3054 3048 3030 3030 3029 3025 3024 3024 3020 3016 3014 3011 3008 3006 3005 3002 3000 2998 2998 2996 2995 2994 2993 2992 2990 2988 2986 2984 2981 2979 2975 2973 2970 2968 2965 2963 2961 2959 2957 2955
3055 3058 3059 3057 3049 3033 3025 3024 3024 3019 3014 3016 3013 3011 3008 3005 3002 3001 2997 2994 2992 2990 2990 2989 2988 2987 2985 2982 2980 2978 2975 2972 2969 2966 2963 2960 2958 2955 2953 2951 2948 2945 2942 2940
3046 3046 3048 3047 3046 3035 3016 3016 3015 3012 3004 3005 3005 3005 3004 3002 2997 2995 2991 2988 2985 2984 2983 2981 2978 2976 2973 2971 2968 2965 2963 2960 2957 2955 2952 2949 2945 2942 2940 2937 2934 2931 2927 2924
3039 3038 3035 3037 3034 3017 3012 3009 3008 3009 3005 2999 2997 2995 2993 2992 2991 2988 2985 2982 2979 2977 2974 2971 2968 2965 2962 2959 2956 2953 2950 2947 2945 2942 2939 2936 2932 2929 2926 2923 2920 2916 2912 2908
3033 3032 3028 3028 3027 3014 3005 3004 3006 3000 2994 2991 2988 2986 2983 2981 2979 2978 2976 2973 2971 2968 2964 2960 2957 2954 2950 2947 2945 2942 2939 2935 2933 2931 2928 2924 2920 2916 2913 2909 2906 2901 2897 2893
3025 3021 3021 3018 3008 3004 3002 2998 2994 2990 2986 2983 2981 2977 2974 2972 2969 2967 2964 2962 2959 2956 2953 2950 2947 2944 2940 2936 2934 2932 2928 2925 2923 2920 2917 2912 2908 2904 2900 2895 2891 2887 2883 2877
3011 3012 3008 3004 2996 2997 2994 2991 2987 2982 2978 2974 2971 2968 2965 2962 2959 2956 2953 2950 2947 2944 2941 2938 2936 2933 2931 2926 2923 2919 2917 2914 2912 2909 2904 2900 2896 2892 2888 2883 2879 2874 2870 2865
3004 3003 2998 2990 2987 2985 2982 2980 2977 2973 2969 2965 2962 2958 2955 2952 2949 2946 2942 2939 2935 2933 2931 2928 2926 2924 2921 2918 2915 2909 2905 2903 2900 2897 2893 2889 2885 2881 2877 2873 2868 2863 2860 2853
2991 2989 2986 2980 2978 2976 2972 2970 2967 2964 2960 2956 2953 2949 2945 2942 2938 2935 2933 2929 2926 2925 2922 2920 2917 2914 2911 2908 2904 2899 2895 2892 2889 2887 2883 2879 2875 2871 2866 2861 2858 2856 2849 2843